Home   Weather   Rosario   Past weeks
Flag for Argentina

Past Weather in Rosario, Santa Fe, Argentina — Yesterday and Last 2 Weeks

Now
52 °F

Passing clouds.


Feels Like: 50 °F
Forecast: 54 / 46 °F
Wind: 7 mph from South

Location: Sauce Viejo Aerodrome

Current Time: Jul 23, 2019 at 12:11:01 am

Latest Report: Jul 22, 2019 at 11:00 pm


Visibility: 7 mi

Pressure: 30.19 "Hg

Humidity: 69%

Dew Point: 42 °F

Location of RosarioLocation

Past Weather in Rosario — Graph

°F

Rosario Temperature Yesterday

Maximum temperature yesterday: 62 °F (at 12:00 am)
Minimum temperature yesterday: 53 °F (at 10:00 pm)
Average temperature yesterday: 58 °F

High & Low Weather Summary for the Past Weeks

 TemperatureHumidityPressure
High81 °F (Jul 21, 3:00 pm)100% (Jul 20, 12:00 am)30.27 "Hg (Jul 20, 12:00 am)
Low38 °F (Jul 16, 7:00 am)41% (Jul 17, 3:00 pm)29.50 "Hg (Jul 21, 4:00 am)
Average58 °F76%30.01 "Hg
* Reported Jul 7 10:00 pm — Jul 22 10:00 pm, Rosario. Weather by CustomWeather, © 2019

Note: Actual official high and low records may vary slightly from our data, if they occured in-between our weather recording intervals... More about our weather records

Advertising

Rosario Weather History for the Previous 24 Hours

Scroll right to see more
 ConditionsComfort  
Time TempWeatherWind HumidityBarometerVisibility
10:00 pm
Mon, Jul 22
53 °FPassing clouds.9 mph66%30.16 "Hg7 mi
9:00 pm54 °FPassing clouds.9 mph62%30.14 "Hg7 mi
8:00 pm55 °FPassing clouds.10 mph62%30.12 "Hg7 mi
7:00 pm56 °FPassing clouds.16 mph61%30.10 "Hg7 mi
6:00 pm58 °FScattered clouds.13 mph58%30.09 "Hg7 mi
5:00 pm59 °FScattered clouds.21 mph49%30.05 "Hg7 mi
3:00 pm60 °FPartly sunny.22 mph51%30.06 "Hg7 mi
2:00 pm59 °FOvercast.18 mph55%30.06 "Hg7 mi
1:00 pm58 °FOvercast.17 mph52%30.06 "Hg7 mi
12:00 pm58 °FOvercast.13 mph59%30.07 "Hg7 mi
11:00 am59 °FOvercast.16 mph59%30.07 "Hg7 mi
10:00 am58 °FOvercast.13 mph52%30.06 "Hg7 mi
9:00 am57 °FOvercast.14 mph53%30.03 "Hg7 mi
8:00 am57 °FOvercast.20 mph51%30.00 "Hg7 mi
7:00 am57 °FOvercast.22 mph56%29.94 "Hg7 mi
6:00 am58 °FOvercast.22 mph52%29.92 "Hg7 mi
5:00 am58 °FPassing clouds.20 mph50%29.90 "Hg7 mi
4:00 am59 °FPassing clouds.23 mph53%29.88 "Hg7 mi
3:00 am60 °FOvercast.21 mph58%29.87 "Hg7 mi
2:00 am60 °FOvercast.23 mph61%29.86 "Hg7 mi
1:00 am61 °FOvercast.20 mph61%29.85 "Hg7 mi
12:00 am62 °FOvercast.18 mph62%29.82 "Hg7 mi
Weather by CustomWeather, © 2019

See weather overview